Temp
49 44 41 42 41 42 40 36 37 38 47 43 43 46 52 55 51 50 52 52 54 55 61 61 60 59 60 60 61 62 62 63 64 64 61 60 60 60 59 59 60 60 60 58
44 41 45 47 45 43 40 36 35 42 45 43 43 43 50 50 51 54 57 55 56 54 57 60 59 58 60 62 62 62 62 62 63 64 64 61 61 60 63 60 59 59 59 59
43 46 50 45 41 40 39 41 40 38 42 41 39 39 44 48 49 54 53 58 59 59 57 60 57 59 60 61 62 62 63 64 64 65 62 57 58 56 56 56 58 59 60 60
44 49 44 41 41 43 37 43 43 41 38 31 37 30 40 44 47 49 53 54 56 59 57 61 60 60 60 62 63 64 64 63 64 64 63 61 62 60 61 63 61 60 59 60
39 42 43 39 40 44 39 44 42 41 38 35 36 34 38 40 42 47 51 52 56 56 59 60 62 63 62 63 64 64 64 64 65 64 65 62 62 64 63 60 57 59 58 60
41 45 45 44 44 46 45 41 39 36 36 31 37 34 36 41 43 46 50 53 55 55 58 60 63 62 64 62 63 64 63 63 64 64 64 63 63 63 61 58 58 57 59 58
40 40 43 46 41 43 42 37 27 30 30 27 35 32 41 46 46 48 51 53 55 54 54 55 58 57 61 59 61 62 62 62 63 64 64 64 63 63 63 61 60 59 57 59
33 31 41 45 45 41 41 39 29 26 24 27 32 30 38 48 55 57 58 58 57 52 51 53 56 57 57 59 60 62 62 62 63 63 63 64 65 64 64 64 63 61 62 61
34 34 39 44 44 46 39 36 42 32 17 25 29 35 43 44 46 48 50 52 53 55 53 52 54 54 55 56 58 59 62 61 62 62 63 63 64 65 64 64 64 63 62 63
38 31 37 39 45 45 42 45 33 34 24 20 28 28 36 40 44 48 50 54 55 49 51 51 51 52 53 54 55 56 60 61 61 62 62 63 63 63 65 65 63 63 63 61
42 34 33 39 38 37 38 37 37 37 33 25 21 31 40 47 50 47 49 51 50 51 50 50 49 50 50 51 51 53 56 57 57 59 60 60 61 62 62 62 62 62 60 59
42 36 27 30 41 40 43 40 41 33 28 32 30 35 46 45 45 46 48 50 48 48 49 47 47 47 48 49 49 50 52 55 56 56 56 57 59 58 59 59 60 59 59 58
40 30 27 28 32 37 36 41 42 42 36 32 29 36 45 41 45 46 45 46 47 48 48 47 46 47 46 48 49 49 50 52 53 54 55 54 55 55 56 57 58 57 57 57
47 32 29 28 28 33 31 36 39 37 31 34 35 39 45 46 46 48 50 47 46 47 48 48 47 46 46 46 47 47 47 48 48 48 50 51 51 53 54 56 56 56 57 58
42 32 31 33 34 33 34 35 38 35 37 33 39 39 45 48 51 51 53 52 48 49 48 48 48 47 46 46 46 46 46 46 46 47 46 46 45 46 46 46 47 47 48 51
41 32 35 31 34 35 32 35 35 37 39 39 39 38 47 51 51 51 48 51 50 48 49 49 48 48 48 48 47 46 44 44 45 44 44 43 41 42 44 44 43 43 43 43
34 33 27 15 31 31 23 33 35 38 41 41 35 43 49 48 48 48 50 50 51 49 49 49 49 49 48 46 44 43 42 42 42 40 38 37 38 39 39 39 39 38 39 39
32 30 20 11 17 11 33 39 40 39 41 44 44 46 49 51 53 53 55 54 52 51 50 49 49 47 44 41 40 40 39 38 38 36 36 36 36 37 37 38 38 38 37 36
34 29 14 13 9 25 34 35 35 34 37 44 44 47 49 51 49 50 56 56 56 54 53 53 47 44 40 39 38 37 34 34 34 34 34 34 35 34 36 35 36 36 35 34
33 34 24 10 4 6 37 40 45 42 32 47 46 47 48 46 40 48 55 56 56 53 45 42 40 38 37 35 36 34 33 34 33 34 34 34 34 35 35 35 34 32 33 32
26 27 22 22 8 19 32 40 43 28 36 44 46 48 48 46 50 55 47 42 43 41 38 37 36 34 32 33 33 32 32 32 32 32 32 32 33 34 34 33 32 33 33 33
23 22 20 21 21 15 34 35 37 31 31 32 36 37 38 40 46 50 45 39 36 34 33 32 31 30 31 31 32 31 30 30 29 30 32 33 33 33 33 33 33 33 33 33
22 30 22 27 27 33 28 28 27 27 26 29 28 31 32 34 38 42 38 34 32 31 30 30 29 28 28 29 31 30 29 28 29 31 32 32 32 33 33 33 33 32 33 32
28 23 28 27 27 22 26 27 24 23 23 27 28 27 31 30 36 36 32 32 30 28 26 26 26 25 24 24 25 25 24 24 22 25 26 27 30 29 30 31 31 32 31 31
15 17 15 22 22 23 25 23 21 19 23 24 26 27 29 29 32 31 31 29 28 26 25 24 23 22 20 21 19 19 21 25 25 24 23 23 23 23 23 24 28 28 28 31
9 5 11 18 10 8 13 17 16 17 19 20 23 24 28 26 29 29 26 25 24 22 21 19 18 18 17 17 16 16 19 24 25 23 22 21 21 20 20 21 22 35 35 35
MSLP
1019.73 1020.19 1019.88 1020.32 1021.19 1021.33 1021.67 1021.81 1021.61 1020.99 1020.10 1019.97 1019.63 1018.82 1018.23 1017.75 1017.87 1017.85 1017.87 1017.62 1017.47 1017.35 1016.72 1016.59 1016.80 1016.95 1017.47 1017.86 1018.16 1018.33 1018.76 1018.88 1019.36 1019.77 1020.31 1020.78 1020.98 1021.49 1021.79 1021.91 1022.04 1022.20 1022.51 1022.89
1020.06 1019.37 1020.07 1020.57 1021.21 1021.50 1021.76 1021.85 1021.85 1021.31 1020.64 1020.62 1020.07 1019.01 1018.14 1017.78 1017.36 1017.09 1016.88 1016.72 1016.54 1016.49 1016.24 1016.11 1016.36 1016.56 1016.55 1016.73 1016.92 1017.57 1017.82 1018.15 1018.42 1018.90 1019.28 1019.64 1020.14 1020.48 1020.58 1020.97 1021.28 1021.63 1021.91 1022.28
1019.20 1019.29 1019.78 1020.50 1021.24 1021.57 1021.79 1021.82 1021.82 1021.93 1021.37 1020.81 1020.49 1019.13 1017.87 1016.96 1016.49 1015.92 1015.81 1015.54 1015.33 1015.22 1015.41 1015.27 1015.60 1015.56 1015.58 1015.66 1015.86 1016.07 1016.50 1017.13 1017.54 1017.97 1018.75 1019.36 1019.65 1020.10 1020.39 1020.64 1020.73 1020.93 1021.23 1021.52
1019.63 1019.25 1019.76 1020.25 1020.70 1021.17 1021.59 1021.55 1021.90 1022.13 1022.40 1021.82 1021.15 1019.27 1017.39 1016.68 1016.15 1015.68 1015.11 1014.95 1014.66 1014.45 1014.42 1014.26 1014.25 1014.60 1014.84 1014.59 1014.90 1015.21 1015.57 1016.11 1016.57 1017.19 1017.71 1018.21 1018.64 1018.97 1019.03 1019.32 1019.76 1019.98 1020.45 1020.73
1019.18 1019.25 1019.85 1020.31 1020.34 1020.91 1021.28 1021.32 1021.69 1021.94 1022.32 1022.26 1021.28 1021.24 1016.51 1016.23 1015.83 1015.12 1014.40 1014.15 1013.76 1013.57 1013.37 1013.26 1013.18 1013.11 1013.22 1013.66 1013.88 1013.81 1014.45 1014.90 1015.58 1016.09 1016.30 1016.87 1017.42 1017.60 1018.15 1018.58 1018.91 1019.35 1019.76 1020.07
1019.03 1019.12 1019.43 1019.55 1020.02 1020.47 1020.94 1021.49 1021.99 1022.29 1022.53 1021.97 1019.51 1020.57 1016.35 1015.68 1014.77 1014.23 1013.52 1013.24 1012.98 1012.78 1012.58 1012.24 1012.23 1012.42 1012.46 1012.71 1013.18 1013.38 1013.69 1013.87 1014.43 1014.78 1015.29 1015.63 1016.00 1016.58 1017.32 1017.74 1018.19 1018.56 1018.84 1019.27
1019.17 1019.41 1019.23 1019.32 1020.02 1020.58 1020.89 1021.56 1022.19 1022.44 1022.46 1020.87 1019.41 1019.61 1015.98 1014.76 1014.08 1013.81 1013.22 1012.66 1012.25 1011.91 1012.07 1011.93 1011.90 1011.94 1011.96 1012.10 1012.23 1012.49 1012.78 1012.87 1013.29 1013.78 1014.12 1014.45 1014.80 1015.39 1015.84 1016.39 1016.87 1017.56 1017.93 1018.03
1018.74 1019.45 1019.15 1019.22 1019.10 1019.80 1020.49 1020.88 1021.58 1021.70 1022.03 1020.81 1019.89 1018.48 1014.47 1013.66 1012.71 1012.58 1012.18 1011.90 1011.62 1011.53 1011.41 1011.51 1011.48 1011.42 1011.43 1011.40 1011.40 1011.61 1011.92 1012.00 1012.34 1012.67 1013.02 1013.47 1013.82 1014.47 1014.76 1015.19 1015.79 1016.19 1016.43 1016.71
1018.33 1018.94 1018.94 1019.27 1019.14 1019.73 1020.43 1020.46 1020.50 1021.67 1022.39 1021.70 1019.42 1016.87 1014.22 1013.34 1012.81 1012.36 1011.94 1011.59 1011.34 1011.00 1010.97 1011.14 1011.02 1010.86 1010.79 1010.78 1010.87 1011.00 1011.24 1011.32 1011.48 1011.55 1011.91 1012.41 1013.02 1013.47 1013.76 1014.23 1014.84 1015.16 1015.47 1015.74
1017.99 1019.00 1019.19 1019.26 1019.56 1020.01 1019.89 1020.03 1020.71 1021.20 1021.52 1021.03 1018.45 1017.15 1014.51 1013.58 1013.08 1012.15 1011.81 1011.07 1010.88 1011.21 1010.96 1010.66 1010.62 1010.44 1010.40 1010.26 1010.00 1010.50 1010.46 1010.71 1010.79 1011.01 1011.44 1011.78 1012.18 1012.57 1012.94 1013.53 1013.94 1014.17 1014.50 1015.13
1017.87 1018.58 1019.68 1019.52 1019.36 1019.36 1019.74 1019.67 1020.05 1020.33 1020.25 1019.90 1018.30 1015.43 1013.08 1012.32 1011.55 1011.60 1011.53 1011.19 1011.17 1011.03 1010.59 1010.26 1010.27 1010.17 1010.14 1010.01 1009.97 1009.98 1010.39 1010.37 1010.61 1010.83 1011.04 1011.49 1011.82 1012.14 1012.38 1012.86 1013.24 1013.59 1014.08 1014.45
1018.11 1019.10 1019.83 1019.62 1019.27 1018.93 1018.94 1018.94 1019.18 1019.66 1019.78 1019.30 1018.39 1012.84 1011.81 1011.67 1011.46 1011.42 1011.21 1011.22 1011.22 1011.18 1010.47 1010.36 1010.31 1010.00 1010.17 1010.15 1009.91 1009.88 1010.08 1010.42 1010.49 1010.63 1011.10 1011.23 1011.55 1011.92 1012.20 1012.38 1012.67 1012.94 1013.31 1013.64
1017.39 1018.42 1019.70 1020.07 1020.05 1019.60 1019.27 1018.95 1019.09 1019.29 1019.51 1018.39 1018.23 1011.26 1010.96 1011.31 1011.38 1011.17 1011.44 1011.25 1011.18 1011.17 1010.89 1010.84 1010.98 1010.46 1010.01 1009.98 1009.79 1009.61 1009.71 1009.96 1010.37 1010.54 1010.84 1011.25 1011.33 1011.60 1011.72 1011.92 1012.27 1012.55 1012.88 1013.07
1016.75 1017.80 1018.40 1018.59 1018.92 1018.68 1019.14 1018.69 1018.52 1019.19 1018.85 1016.52 1015.62 1009.82 1011.75 1011.59 1011.74 1011.66 1011.38 1011.21 1011.08 1011.06 1011.24 1011.07 1010.97 1010.91 1010.68 1010.69 1010.66 1010.35 1010.14 1010.23 1010.59 1010.93 1011.17 1011.33 1011.71 1011.71 1011.65 1011.83 1012.09 1012.40 1012.57 1012.72
1017.32 1018.25 1018.93 1019.11 1018.98 1018.79 1018.67 1018.24 1018.13 1017.69 1016.03 1017.41 1012.46 1013.21 1010.10 1011.79 1011.75 1011.43 1011.10 1010.80 1010.59 1010.65 1010.91 1011.27 1011.35 1011.13 1011.08 1011.11 1011.10 1010.98 1010.65 1010.51 1010.72 1011.05 1011.39 1011.57 1011.68 1011.99 1012.15 1012.38 1012.64 1012.71 1012.83 1012.97
1018.07 1018.86 1019.33 1019.67 1019.60 1019.35 1018.65 1017.62 1017.47 1016.58 1016.14 1015.22 1014.05 1012.12 1011.20 1011.11 1010.84 1010.74 1010.50 1010.07 1010.02 1010.16 1010.54 1010.61 1010.99 1011.16 1010.80 1011.01 1011.23 1011.46 1011.48 1011.30 1011.24 1011.49 1011.85 1012.09 1012.34 1012.61 1012.81 1013.00 1013.11 1013.23 1013.47 1013.60
1018.45 1019.40 1020.34 1020.79 1020.17 1019.68 1018.56 1016.58 1016.36 1015.64 1015.44 1014.75 1013.78 1008.78 1011.27 1010.44 1010.71 1010.18 1009.19 1009.06 1009.18 1009.30 1009.76 1009.75 1010.01 1010.31 1010.50 1010.96 1011.30 1011.55 1011.79 1011.61 1011.68 1012.09 1012.47 1012.73 1012.98 1013.12 1013.30 1013.39 1013.59 1013.88 1014.06 1014.17
1018.94 1019.99 1021.00 1022.28 1021.89 1020.31 1015.99 1014.80 1014.56 1014.40 1013.95 1013.74 1012.50 1009.24 1009.67 1009.72 1009.62 1008.84 1008.01 1008.12 1008.45 1008.71 1008.66 1008.82 1009.21 1009.67 1010.23 1010.75 1011.32 1011.68 1012.11 1012.28 1011.91 1012.58 1013.02 1013.18 1013.35 1013.56 1013.77 1013.87 1014.05 1014.14 1014.35 1014.75
1018.62 1019.98 1021.78 1022.92 1022.58 1019.02 1015.76 1014.83 1014.62 1014.20 1012.60 1012.31 1011.46 1009.48 1008.13 1009.27 1009.66 1006.61 1005.62 1007.10 1006.81 1006.75 1007.01 1007.60 1008.42 1009.44 1010.31 1011.07 1011.26 1011.60 1012.71 1012.65 1012.44 1012.98 1013.27 1013.42 1013.55 1013.79 1014.03 1014.22 1014.37 1014.54 1014.80 1015.05
1019.27 1019.81 1021.39 1023.47 1022.64 1019.86 1012.14 1013.91 1013.15 1013.53 1011.70 1011.61 1011.19 1009.43 1008.17 1009.01 1008.63 1003.55 1004.88 1005.23 1005.33 1005.83 1006.58 1007.50 1008.44 1009.53 1010.67 1011.20 1011.41 1012.53 1013.07 1012.85 1013.13 1013.57 1013.70 1013.59 1013.56 1013.71 1014.06 1014.40 1014.58 1014.85 1015.03 1015.21
1019.86 1020.54 1020.96 1021.27 1021.65 1018.53 1014.31 1013.93 1014.00 1014.60 1010.56 1011.46 1010.70 1009.68 1009.26 1008.71 1006.66 1003.90 1004.46 1005.07 1005.33 1006.22 1007.18 1007.91 1009.10 1010.11 1010.98 1011.53 1012.20 1012.58 1012.77 1013.42 1013.47 1013.63 1013.96 1014.08 1013.92 1013.78 1013.99 1014.36 1014.72 1014.95 1015.09 1015.60
1018.89 1019.96 1020.24 1020.74 1021.07 1018.45 1015.14 1014.67 1015.41 1016.04 1013.95 1013.21 1012.13 1011.18 1010.43 1009.33 1007.41 1006.19 1005.71 1006.12 1006.89 1007.62 1008.55 1009.12 1009.89 1011.18 1012.11 1012.26 1012.03 1012.61 1013.42 1013.81 1014.06 1013.89 1014.25 1014.33 1014.33 1014.35 1014.38 1014.45 1014.78 1014.95 1015.22 1015.53
1018.54 1018.13 1018.68 1018.46 1017.27 1016.35 1016.55 1016.93 1017.93 1017.98 1017.34 1015.93 1015.04 1013.35 1012.12 1010.20 1008.69 1007.43 1006.75 1007.37 1008.07 1008.69 1009.67 1010.52 1011.13 1011.90 1012.63 1012.57 1012.31 1013.10 1014.05 1014.35 1014.49 1014.10 1014.31 1014.54 1014.63 1014.67 1014.77 1014.93 1015.27 1015.51 1015.62 1015.79
1019.15 1019.49 1019.50 1019.03 1017.84 1018.27 1018.47 1018.88 1019.35 1019.47 1019.02 1017.88 1016.73 1015.16 1013.53 1011.21 1010.06 1009.14 1008.61 1008.80 1009.49 1010.02 1010.68 1011.52 1012.16 1012.66 1013.31 1013.63 1013.65 1013.97 1014.54 1014.86 1015.03 1014.40 1014.73 1014.89 1015.14 1015.60 1015.79 1015.91 1015.97 1015.93 1015.99 1016.18
1022.03 1021.96 1022.19 1021.25 1020.32 1019.95 1019.99 1020.42 1020.88 1020.40 1019.74 1018.55 1017.23 1016.14 1014.58 1011.98 1011.23 1010.90 1010.40 1010.50 1010.99 1011.48 1011.89 1012.42 1013.28 1014.16 1014.93 1015.03 1015.13 1015.26 1015.39 1014.95 1015.30 1015.32 1015.37 1015.68 1016.05 1016.20 1016.46 1016.65 1016.54 1016.48 1016.69 1016.47
1024.61 1025.36 1025.70 1024.67 1025.17 1025.23 1023.35 1022.86 1022.99 1022.28 1021.06 1020.01 1018.35 1016.71 1015.49 1013.28 1012.94 1012.78 1012.58 1012.38 1012.77 1013.30 1013.56 1014.05 1015.00 1015.57 1016.22 1016.51 1016.87 1016.21 1016.07 1015.32 1015.35 1015.80 1015.93 1016.12 1016.45 1016.78 1017.00 1017.23 1017.54 1017.44 1017.33 1017.28
Wind_Speed
4 5 16 12 4 3 4 2 4 3 6 2 6 14 14 12 6 8 9 9 11 12 14 10 7 9 9 8 10 12 11 12 9 8 6 5 7 6 5 5 6 7 7 7
4 15 5 8 6 4 3 2 3 5 4 3 8 15 14 9 10 11 14 13 13 8 9 12 9 9 13 16 15 12 14 13 12 9 7 4 5 5 8 7 8 8 9 9
7 6 9 8 5 6 4 10 3 3 6 3 5 11 11 8 8 12 10 15 13 14 13 12 10 15 15 16 16 16 17 15 13 14 5 2 2 2 3 3 6 9 10 10
10 3 9 5 10 10 9 7 4 4 4 4 2 9 9 4 9 9 13 11 15 14 9 13 11 13 14 17 15 16 16 15 14 14 11 14 12 11 8 9 7 7 11 11
6 6 8 8 5 7 4 6 8 5 5 3 8 6 8 2 7 10 10 11 12 12 14 15 16 15 15 15 15 17 17 16 16 16 17 13 14 11 8 6 8 10 8 12
6 1 8 9 4 10 7 5 3 3 2 6 15 10 6 7 7 6 8 10 11 10 13 15 14 9 12 11 12 13 15 17 17 18 19 18 18 15 10 9 9 7 8 8
5 5 2 4 6 3 5 7 2 4 5 11 2 8 17 10 6 7 10 12 14 10 10 10 11 10 11 11 14 14 15 18 18 19 18 20 19 17 17 13 11 10 8 8
7 6 9 4 4 5 10 7 5 5 4 7 3 9 9 14 16 17 18 17 14 10 9 10 10 9 9 11 12 14 16 18 17 18 19 18 19 12 13 14 11 11 11 10
8 6 3 4 3 6 3 13 7 1 1 1 5 11 10 8 10 9 13 12 13 14 9 9 10 10 9 9 11 14 15 16 16 18 17 17 15 17 15 16 12 11 11 10
6 3 2 4 5 7 4 2 4 5 5 6 6 7 13 7 9 13 12 16 10 6 9 9 9 8 7 8 7 8 13 15 14 14 14 13 15 15 15 11 13 14 12 9
5 3 0 6 8 11 7 6 3 1 3 3 3 10 9 15 15 9 9 10 10 10 10 8 7 6 6 4 5 6 7 8 7 9 10 11 11 12 12 11 11 11 7 8
3 4 3 8 3 2 7 8 11 5 4 3 2 21 5 9 8 6 10 10 8 10 9 7 6 3 3 3 1 3 4 6 5 6 6 8 8 8 9 10 11 8 11 9
9 3 3 3 6 3 5 7 8 9 5 14 2 23 3 1 8 8 8 9 9 8 8 6 7 4 3 5 4 3 3 5 4 4 6 6 7 7 9 9 9 7 9 8
15 4 8 13 6 6 6 11 14 12 5 13 23 41 13 8 10 12 16 8 7 6 7 6 5 4 4 4 3 2 3 3 1 1 3 3 3 4 3 3 4 6 6 8
7 4 4 4 2 2 4 7 14 19 21 12 31 26 15 15 16 14 13 13 9 8 7 8 6 4 3 3 2 2 2 3 2 3 1 1 0 1 2 3 4 4 4 3
4 1 2 3 5 6 10 17 10 16 18 25 22 34 5 13 14 17 12 14 14 9 10 9 7 8 7 5 0 3 4 3 3 4 4 4 5 5 5 5 5 5 5 5
8 6 4 5 4 3 8 18 19 17 19 16 23 39 18 20 17 13 17 13 15 11 11 11 10 10 7 4 3 3 2 2 5 5 5 5 5 5 5 5 5 5 5 5
8 6 3 3 4 3 7 6 12 18 18 21 27 37 31 28 23 20 20 18 14 12 12 12 10 6 7 5 4 5 3 3 6 6 5 5 5 5 5 5 5 5 5 5
6 5 2 5 5 9 19 5 6 8 15 20 27 32 33 23 16 32 28 19 22 19 17 12 7 6 6 6 5 7 5 5 7 6 5 5 5 5 5 5 5 4 4 3
4 1 5 4 5 9 24 9 10 5 22 11 15 26 30 7 15 29 13 20 24 14 7 9 9 8 7 4 7 7 5 6 6 4 3 4 5 6 6 5 4 2 3 4
5 4 13 11 3 13 5 8 8 8 29 8 8 17 18 15 20 24 2 2 3 5 7 9 9 7 6 5 7 7 7 5 3 4 3 3 3 5 5 5 2 3 5 4
8 9 6 6 6 16 4 2 20 8 11 9 8 6 13 17 23 19 9 6 6 8 8 7 10 8 5 4 7 8 6 3 1 4 4 4 4 3 4 7 4 4 4 5
3 7 7 11 11 1 5 3 8 12 13 12 17 21 14 18 20 11 6 7 6 9 8 6 9 10 6 5 7 8 3 2 2 5 5 5 5 6 5 5 5 4 4 4
2 6 4 3 2 5 3 2 12 15 15 19 18 20 18 16 19 10 3 7 7 7 8 7 9 9 7 7 8 6 3 1 2 7 6 5 6 5 5 4 3 4 4 4
0 5 2 8 0 12 7 13 18 24 19 19 20 20 19 12 9 5 3 6 7 7 7 8 8 8 8 6 7 5 2 3 6 6 6 6 5 5 5 5 4 4 2 3
4 1 3 3 6 5 12 17 28 21 22 20 21 23 17 13 6 4 6 7 8 8 8 10 10 9 7 7 5 6 4 3 7 7 5 4 4 4 4 4 5 14 14 14
Wind_Direction
182 166 206 189 148 124 140 196 217 248 264 303 242 264 267 273 253 231 248 245 242 237 247 249 221 194 201 197 199 197 188 197 187 192 181 197 206 201 208 214 212 204 202 190
144 221 138 155 156 162 128 163 257 281 292 181 282 272 272 263 255 242 250 246 243 237 244 249 224 207 200 216 211 200 207 196 194 192 202 184 175 203 210 202 206 203 199 201
198 153 166 146 153 182 204 230 198 264 329 267 306 277 260 249 237 250 242 244 244 236 229 244 223 217 215 218 210 204 209 207 200 200 179 116 114 105 159 194 207 211 208 204
231 228 170 159 202 169 233 183 200 263 337 257 32 290 263 245 249 247 255 243 246 243 233 235 223 227 219 221 211 213 209 205 205 193 191 200 212 218 214 214 212 203 203 208
190 162 179 209 191 163 220 162 190 199 235 319 235 276 264 273 262 258 259 248 240 234 233 233 233 224 218 219 212 211 210 204 203 199 203 197 212 218 216 200 188 202 204 214
193 171 183 201 154 169 153 87 71 84 131 250 241 202 236 232 217 233 251 256 255 235 235 242 244 230 228 217 215 214 209 211 204 200 205 204 210 211 206 200 202 203 205 204
154 202 115 148 129 106 147 123 284 225 201 237 39 197 247 280 276 238 252 262 259 243 233 236 239 223 220 208 209 211 207 213 206 208 208 209 211 209 214 207 207 203 205 210
173 191 178 191 147 172 193 164 188 216 212 268 62 236 253 224 249 252 264 267 268 261 229 227 236 234 225 221 216 216 215 219 208 206 209 210 214 211 217 216 210 217 218 219
187 221 65 166 96 143 171 214 193 23 76 316 226 277 290 238 259 256 258 268 266 257 260 240 234 225 228 220 217 215 220 221 215 210 212 211 210 213 215 218 215 218 219 220
179 143 169 187 126 227 192 185 181 196 209 234 244 272 243 325 265 253 259 258 285 300 269 252 251 244 240 240 223 219 216 221 215 212 212 213 212 213 219 216 216 218 224 211
142 120 203 131 195 181 175 203 173 61 206 233 310 259 217 230 243 242 261 280 276 285 276 269 257 251 246 248 251 239 229 213 207 210 208 211 212 212 213 216 218 221 210 201
189 90 176 208 235 270 220 218 198 225 224 236 233 265 207 226 241 233 265 282 305 276 289 293 270 240 263 276 294 234 213 215 209 190 197 203 207 204 206 212 215 200 211 203
167 196 156 357 353 350 233 212 243 249 288 245 258 266 6 18 301 301 282 322 320 323 322 325 310 293 226 221 204 159 179 205 205 190 188 207 204 196 207 210 211 207 211 210
160 156 181 218 194 148 186 198 202 200 262 259 234 263 256 310 325 306 301 295 294 306 303 284 276 304 336 339 338 68 86 77 98 213 228 220 231 221 211 209 208 214 219 223
171 210 199 242 279 24 210 197 210 213 235 225 256 264 255 259 266 262 265 284 283 262 256 271 283 270 272 286 310 339 76 95 107 117 132 248 109 31 44 59 40 25 9 352
159 201 176 216 225 241 267 261 265 254 240 241 260 269 97 265 265 268 255 258 261 236 238 234 247 253 231 218 178 9 4 27 67 79 70 66 64 65 66 53 48 57 55 51
158 158 134 255 191 153 282 238 237 248 240 252 250 257 275 272 280 262 257 245 250 243 227 223 216 221 211 170 120 97 13 37 66 77 69 73 85 85 78 80 79 69 61 67
136 129 102 200 44 275 256 188 207 232 248 243 254 264 268 266 267 270 251 251 244 247 223 227 213 197 164 148 130 119 76 94 105 91 84 75 91 93 87 88 87 82 66 63
137 129 84 147 190 291 285 228 175 191 250 231 244 258 264 266 275 264 252 244 236 227 229 222 183 156 140 146 136 109 107 96 79 78 87 93 114 122 111 96 98 96 105 90
139 120 138 105 141 228 269 191 204 174 268 223 234 254 262 234 247 261 265 231 237 232 183 162 142 133 135 129 112 127 121 101 94 102 119 131 135 123 118 123 103 79 90 100
150 168 213 230 231 278 262 186 156 202 256 169 240 270 291 251 236 260 225 219 208 174 139 120 114 114 103 126 137 118 108 107 123 123 125 111 108 114 117 110 99 119 105 103
159 162 192 194 193 265 6 252 211 327 319 331 320 327 315 306 299 274 233 163 128 121 112 110 110 103 89 114 119 105 104 110 135 123 119 106 101 102 118 117 102 87 99 91
216 189 185 179 209 58 40 70 29 2 326 321 322 315 316 301 300 273 199 156 140 128 114 97 113 108 73 56 85 104 82 130 178 116 99 86 71 57 47 74 82 79 73 87
128 8 244 1 229 352 1 39 21 355 336 322 320 312 306 308 300 276 166 131 125 112 109 107 108 99 88 51 61 70 42 79 132 100 87 69 78 72 58 64 63 88 76 77
220 344 350 272 55 332 152 9 354 334 330 330 328 320 310 321 312 303 131 104 102 96 89 86 91 88 79 69 66 38 1 119 98 95 102 96 93 89 82 59 57 62 44 89
11 54 207 263 27 306 287 324 322 328 327 325 325 319 318 352 336 43 68 74 83 82 79 80 77 83 69 57 38 35 356 102 125 103 88 87 94 84 85 91 59 68 81 80